Fort Worth, TX

3:57 PM CST on January 21, 2017 (GMT -0600)
Fort Worth

Weather History for KFTW - May, 2013

Change the Weather History Date:

Tuesday, May 7, 2013

  Actual Average Record
Temperature  
Mean Temperature 70 °F -  
Max Temperature 84 °F 80 °F 91 °F (1998)
Min Temperature 57 °F 59 °F 51 °F (1999)
Cooling Degree Days 4    
Growing Degree Days 20 (Base 50)    
Moisture  
Dew Point 53 °F    
Average Humidity 56    
Maximum Humidity 93    
Minimum Humidity 33    
Precipitation  
Precipitation 0.00 in - - ()
Sea Level Pressure  
Sea Level Pressure 29.99 in    
Wind  
Wind Speed 3 mph (SE)    
Max Wind Speed 14 mph    
Max Gust Speed 18 mph    
Visibility 10 miles    
Events      
Averages and records for this station are not official NWS values.
T = Trace of Precipitation, MM = Missing Value Source: NWS Daily Summary

Daily Weather History Graph

Daily Weather History Graph

Search for Another Location

Airport or City:

Trip Planner

Search our weather history database for the weather conditions in past years. The results will help you decide how hot, cold, wet, or windy it might be!

Date:

Astronomy

May. 07, 2013 Rise Set
Actual Time 6:36 AM CDT 8:15 PM CDT
Civil Twilight 6:09 AM CDT 8:42 PM CDT
Nautical Twilight 5:37 AM CDT 9:14 PM CDT
Astronomical Twilight 5:04 AM CDT 9:48 PM CDT
Moon 5:04 AM CDT (5/7) 6:22 PM CDT (5/7)
Length of Visible Light 14h 32m
Length of Day
13h 39m
Waning Crescent, 5% of the Moon is Illuminated
May 7
Waning Crescent
May 9
New
May 17
First Quarter
May 24
Full
May 31
Last Quarter

Hourly Weather History & Observations

Time (CDT) Temp. Dew Point Humidity Pressure Visibility Wind Dir Wind Speed Gust Speed Precip Events Conditions
12:53 AM 64.0 °F 53.1 °F 67% 30.01 in 10.0 mi Calm Calm - N/A   Clear
1:53 AM 62.1 °F 54.0 °F 75% 30.01 in 10.0 mi Calm Calm - N/A   Clear
2:53 AM 61.0 °F 54.0 °F 78% 30.01 in 10.0 mi Calm Calm - N/A   Clear
3:53 AM 57.9 °F 54.0 °F 87% 30.02 in 10.0 mi Calm Calm - N/A   Clear
4:53 AM 57.9 °F 55.0 °F 90% 30.01 in 10.0 mi Calm Calm - N/A   Clear
5:53 AM 57.0 °F 55.0 °F 93% 30.02 in 10.0 mi Calm Calm - N/A   Clear
6:53 AM 57.9 °F 55.0 °F 90% 30.03 in 10.0 mi Calm Calm - N/A   Clear
7:53 AM 59.0 °F 55.9 °F 90% 30.06 in 10.0 mi Calm Calm - N/A   Clear
8:53 AM 66.0 °F 54.0 °F 65% 30.06 in 10.0 mi Calm Calm - N/A   Clear
9:53 AM 71.1 °F 52.0 °F 51% 30.06 in 10.0 mi South 5.8 mph - N/A   Clear
10:53 AM 75.0 °F 51.1 °F 43% 30.05 in 10.0 mi SW 6.9 mph - N/A   Clear
11:53 AM 77.0 °F 52.0 °F 42% 30.04 in 10.0 mi Variable 6.9 mph - N/A   Clear
12:53 PM 81.0 °F 52.0 °F 36% 30.01 in 10.0 mi SE 6.9 mph - N/A   Clear
1:53 PM 81.0 °F 51.1 °F 35% 29.99 in 10.0 mi East 8.1 mph - N/A   Clear
2:53 PM 82.9 °F 51.1 °F 33% 29.97 in 10.0 mi South 12.7 mph 17.3 mph N/A   Clear
3:53 PM 82.0 °F 51.1 °F 34% 29.95 in 10.0 mi South 5.8 mph - N/A   Clear
4:53 PM 82.9 °F 51.1 °F 33% 29.92 in 10.0 mi SE 6.9 mph 18.4 mph N/A   Clear
5:53 PM 82.0 °F 50.0 °F 33% 29.91 in 10.0 mi SE 9.2 mph - N/A   Clear
6:53 PM 81.0 °F 50.0 °F 34% 29.90 in 10.0 mi SE 13.8 mph - N/A   Clear
7:53 PM 78.1 °F 50.0 °F 37% 29.90 in 10.0 mi SE 9.2 mph - N/A   Clear
8:53 PM 75.9 °F 51.1 °F 42% 29.91 in 10.0 mi ESE 9.2 mph - N/A   Clear
9:53 PM 73.0 °F 53.1 °F 49% 29.92 in 10.0 mi SE 9.2 mph - N/A   Clear
10:53 PM 71.1 °F 53.1 °F 53% 29.94 in 10.0 mi SE 8.1 mph - N/A   Clear
11:53 PM 69.1 °F 52.0 °F 54% 29.94 in 10.0 mi SE 8.1 mph - N/A   Clear